Location: Proctor
(47.8934°N, 114.3048°W)
Time: 10:45:25
(UTC+00:00)

AIST 2D - Pass Details

Date: 04 July 2022
Orbit: 433 x 444 km, 97.0° (Epoch: 10 August)

Event Time Altitude Azimuth Distance (km) Brightness Sun altitude
Rises 04:42:16 0° 21° (NNE) 2,428 ? -8.6°
Reaches altitude 10° 04:44:28 10° 33° (NNE) 1,555 ? -8.8°
Maximum altitude 04:47:26 29° 96° (E) 826 ? -9.2°
Enters shadow 04:49:56 13° 155° (SSE) 1,381 ? -9.4°
